EW5295 Weather Reports


time (UTC)temp
F
wind
direction
speed
knots
gust
knots
rain 1hr
in
rain 24hr
in
rain mn
in
humidity
%
barometer
mb
20260902074614 58 314 0.0 2.6 0.00 0.00 0.00 85 1009.9
20260902073058 58 171 0.0 0.0 0.00 0.00 0.00 84 1010.1
20260902071556 59 154 0.0 0.0 0.00 0.00 0.00 83 1010.2
20260902070055 59 165 0.0 0.0 0.00 0.00 0.00 83 1010.4
20260902064546 59 160 0.0 0.9 0.00 0.00 0.00 82 1010.5
20260902063044 58 170 0.0 1.7 0.00 0.00 0.00 83 1010.5
20260902061547 58 174 0.0 0.0 0.00 0.00 0.00 83 1010.4
20260902060040 59 174 0.0 0.0 0.00 0.00 0.00 82 1010.4
20260902054541 59 136 0.0 0.0 0.00 0.00 0.00 83 1010.6
20260902053038 59 136 0.0 0.0 0.00 0.00 0.00 82 1010.7
20260902051536 59 136 0.0 0.0 0.00 0.00 0.00 82 1010.6
20260902050036 60 150 0.0 0.9 0.00 0.00 0.00 81 1010.7
20260902044528 60 159 0.0 0.0 0.00 0.00 0.00 81 1010.9
20260902043032 60 158 0.0 0.0 0.00 0.00 0.00 80 1010.8
20260902041521 60 158 0.0 0.0 0.00 0.00 0.00 79 1010.8
20260902040019 60 158 0.0 0.0 0.00 0.00 0.00 78 1010.8
20260902034516 61 158 0.0 0.0 0.00 0.00 0.00 77 1010.6
20260902033015 61 158 0.0 0.0 0.00 0.00 0.00 76 1010.6
20260902031522 61 158 0.0 0.9 0.00 0.00 0.00 75 1010.5
20260902030011 62 143 0.0 0.9 0.00 0.00 0.00 74 1010.4
20260902024558 62 160 0.0 0.0 0.00 0.00 0.00 74 1010.4
20260902023108 62 172 0.0 0.0 0.00 0.00 0.00 74 1010.4
20260902021555 63 149 0.0 0.0 0.00 0.00 0.00 73 1010.3
20260902020053 63 126 0.0 0.0 0.00 0.00 0.00 74 1010.2
20260902014551 63 126 0.0 0.9 0.00 0.00 0.00 76 1010.2
20260902013050 63 126 0.0 0.9 0.00 0.00 0.00 74 1010.1
20260902011610 64 157 0.0 0.0 0.00 0.00 0.00 72 1010.0
20260902010048 64 162 0.0 0.9 0.00 0.00 0.00 72 1010.1
20260902004538 65 141 0.0 0.9 0.00 0.00 0.00 71 1010.0
20260902003038 65 187 0.0 0.9 0.00 0.00 0.00 70 1009.9
20260902001537 66 128 0.0 1.7 0.00 0.00 0.00 68 1009.8
20260902000040 65 148 0.0 1.7 0.00 0.00 0.00 69 1009.8
20260901234534 65 158 0.0 1.7 0.00 0.00 0.00 69 1009.9
20260901233033 65 169 0.0 0.9 0.00 0.00 0.00 70 1010.0
20260901231539 65 150 0.0 2.6 0.00 0.00 0.00 71 1009.9
20260901230030 65 126 0.0 0.0 0.00 0.00 0.00 72 1010.1
20260901224524 65 165 0.0 0.9 0.00 0.00 0.00 72 1010.1
20260901223016 65 143 0.0 1.7 0.00 0.00 0.00 71 1010.2
20260901221547 65 143 0.0 1.7 0.00 0.00 0.00 72 1010.1
20260901220012 64 158 0.0 0.0 0.00 0.00 0.00 74 1010.1
20260901214510 64 160 0.0 0.9 0.00 0.00 0.00 74 1010.0
20260901213018 63 171 0.0 0.0 0.00 0.00 0.00 74 1010.1
20260901211512 63 172 0.0 0.0 0.00 0.00 0.00 75 1010.1
20260901210006 64 173 0.0 0.0 0.00 0.00 0.00 76 1010.1
20260901204601 64 173 0.0 0.0 0.00 0.00 0.00 76 1010.2
20260901203048 64 196 0.0 0.9 0.00 0.00 0.00 76 1010.3
20260901201535 64 149 0.0 0.0 0.00 0.00 0.00 76 1010.2
20260901200055 64 135 0.0 0.0 0.00 0.00 0.00 76 1010.3
20260901194546 63 192 0.0 0.0 0.00 0.00 0.00 79 1010.3
20260901193042 63 150 0.0 0.0 0.00 0.00 0.00 80 1010.5
20260901191602 62 151 0.0 0.0 0.00 0.00 0.00 82 1010.5
20260901190033 62 168 0.0 0.0 0.00 0.00 0.00 83 1010.7
20260901184534 61 169 0.0 0.0 0.00 0.00 0.00 85 1010.8
20260901183044 61 181 0.0 0.9 0.00 0.00 0.00 86 1010.9
20260901181523 61 161 0.0 0.0 0.00 0.00 0.00 87 1010.9
20260901180019 60 160 0.0 0.0 0.00 0.00 0.00 89 1010.9
20260901174519 60 161 0.0 0.0 0.00 0.00 0.00 90 1010.9
20260901173018 59 161 0.0 0.0 0.00 0.00 0.00 92 1010.9
20260901171518 58 162 0.0 0.0 0.00 0.00 0.00 93 1010.8
20260901170016 58 167 0.0 0.0 0.00 0.00 0.00 93 1010.7
20260901164516 58 167 0.0 0.0 0.00 0.00 0.00 94 1010.7
20260901163015 57 167 0.0 0.0 0.00 0.00 0.00 94 1010.8
20260901161525 57 167 0.0 0.0 0.00 0.00 0.00 94 1010.8
20260901160109 57 167 0.0 0.0 0.00 0.00 0.00 94 1010.7
20260901154554 56 167 0.0 0.0 0.00 0.00 0.00 93 1010.8
20260901153050 56 167 0.0 0.0 0.00 0.00 0.00 93 1010.8
20260901151542 0 0.0 0.0 0.00 0.00 0.00 1010.7
20260901150039 0 0.0 0.0 0.00 0.00 0.00 1010.5
20260901144538 0 0.0 0.0 0.00 0.00 0.00 1010.3
20260901143026 0 0.0 0.0 0.00 0.00 0.00 1010.4
20260901141524 0 0.0 0.0 0.00 0.00 0.00 1010.2
20260901140015 0 0.0 0.0 0.00 0.00 0.00 1010.2
20260901134511 0 0.0 0.0 0.00 0.00 0.00 1010.1
20260901133056 0 0.0 0.0 0.00 0.00 0.00 1010.0
20260901131550 0 0.0 0.0 0.00 0.00 0.00 1010.0
20260901130046 0 0.0 0.0 0.00 0.00 0.00 1009.9
20260901124542 0 0.0 0.0 0.00 0.00 0.00 1009.8
20260901123038 0 0.0 0.0 0.00 0.00 0.00 1009.8
20260901121533 0 0.0 0.0 0.00 0.00 0.00 1009.8
20260901120032 56 170 0.0 0.0 0.00 0.00 0.00 91 1009.8
20260901114533 55 146 0.0 0.0 0.00 0.00 0.00 92 1009.8
20260901113020 54 146 0.0 0.0 0.00 0.00 0.00 93 1009.8
20260901111519 54 146 0.0 0.0 0.00 0.00 0.00 92 1009.7
20260901110016 55 146 0.0 0.0 0.00 0.00 0.00 91 1009.5
20260901104516 55 146 0.0 0.0 0.00 0.00 0.00 91 1009.5
20260901103013 55 146 0.0 0.9 0.00 0.00 0.00 91 1009.4
20260901101526 55 161 0.0 0.0 0.00 0.00 0.00 90 1009.4
20260901100010 55 162 0.0 0.9 0.00 0.00 0.00 90 1009.4
20260901094509 55 156 0.0 0.0 0.00 0.00 0.00 89 1009.3
20260901093049 56 156 0.0 0.0 0.00 0.00 0.00 89 1009.2
20260901091555 56 156 0.0 0.0 0.00 0.00 0.00 88 1009.0
20260901090028 56 156 0.0 0.0 0.00 0.00 0.00 88 1008.8
20260901084536 57 156 0.0 0.0 0.00 0.00 0.00 88 1008.9
20260901083014 57 157 0.0 0.0 0.00 0.00 0.00 87 1008.9
20260901081513 57 157 0.0 0.0 0.00 0.00 0.00 87 1008.9
20260901080016 58 158 0.0 0.0 0.00 0.00 0.00 86 1008.9